DW0805 Weather Reports


Display with metric or nautical units.
time (UTC)temp
F
wind
direction
speed
MPH
gust
MPH
rain 1hr
in
rain 24hr
in
rain mn
in
humidity
%
barometer
mb
20260505124514 57 331 6.0 10.0 0.00 0.00 0.00 61 1011.5
20260505120513 56 303 6.0 14.0 0.00 0.00 0.00 65 1011.6
20260505115513 56 331 7.0 13.0 0.00 0.00 0.00 63 1011.6
20260505114513 56 350 6.0 12.0 0.00 0.00 0.00 65 1011.7
20260505113512 57 349 6.0 14.0 0.00 0.00 0.00 63 1011.7
20260505112513 56 347 6.0 15.0 0.00 0.00 0.00 64 1011.5
20260505101514 55 356 6.0 12.0 0.00 0.00 0.00 71 1011.8
20260505095514 55 305 7.0 10.0 0.00 0.00 0.00 72 1011.8
20260505094513 55 347 6.0 13.0 0.00 0.00 0.00 73 1011.8
20260505091513 55 304 6.0 14.0 0.00 0.00 0.00 69 1011.7
20260505085514 54 2 3.0 12.0 0.00 0.00 0.00 72 1011.7
20260505081515 53 334 5.0 12.0 0.00 0.01 0.00 74 1011.6
20260505075513 54 311 5.0 10.0 0.00 0.01 0.00 75 1011.4
20260505073513 53 333 6.0 14.0 0.00 0.01 0.00 78 1011.4
20260505071513 50 338 8.0 12.0 0.00 0.01 0.00 80 1011.4
20260505065513 51 356 5.0 10.0 0.00 0.01 0.00 83 1011.3
20260505064513 50 322 5.0 14.0 0.00 0.01 0.00 81 1011.3
20260505063513 51 309 6.0 15.0 0.00 0.01 0.00 81 1011.2
20260505062513 50 307 7.0 10.0 0.00 0.01 0.00 80 1011.3
20260505055513 50 318 6.0 12.0 0.00 0.01 0.00 81 1011.2
20260505054513 49 289 6.0 13.0 0.00 0.01 0.00 82 1011.3
20260505053513 49 310 6.0 13.0 0.00 0.01 0.00 83 1011.2
20260505052514 48 342 6.0 12.0 0.00 0.01 0.00 85 1011.2
20260505041513 47 308 2.0 8.0 0.00 0.01 0.00 88 1011.1
20260505040512 46 337 3.0 6.0 0.00 0.01 0.00 88 1011.0
20260505035513 46 319 3.0 6.0 0.00 0.01 0.00 88 1011.0
20260505030513 46 299 5.0 9.0 0.00 0.01 0.00 88 1010.8
20260505025513 46 296 5.0 9.0 0.00 0.01 0.00 88 1010.9
20260505024513 46 279 3.0 8.0 0.00 0.01 0.00 88 1010.9
20260505015513 46 326 4.0 9.0 0.00 0.02 0.00 87 1011.2
20260505013514 46 290 3.0 7.0 0.00 0.02 0.00 87 1011.2
20260505012515 46 313 4.0 8.0 0.00 0.02 0.00 87 1011.3
20260505011514 46 313 3.0 8.0 0.00 0.02 0.00 87 1011.4
20260505005514 46 302 3.0 9.0 0.00 0.02 0.00 87 1011.4
20260505004514 46 307 6.0 9.0 0.00 0.02 0.00 87 1011.4
20260505003513 46 296 4.0 9.0 0.00 0.02 0.00 87 1011.5
20260505002513 46 296 4.0 9.0 0.00 0.02 0.00 87 1011.5
20260505001513 46 292 4.0 12.0 0.00 0.02 0.00 87 1011.5
20260504235514 46 302 5.0 9.0 0.00 0.02 0.00 87 1011.4
20260504234514 46 304 3.0 8.0 0.00 0.02 0.00 87 1011.4
20260504231513 47 314 4.0 9.0 0.00 0.03 0.00 87 1011.4
20260504230514 47 319 4.0 12.0 0.00 0.03 0.00 87 1011.5
20260504223513 47 314 3.0 6.0 0.00 0.04 0.00 87 1011.5
20260504222514 47 299 2.0 5.0 0.00 0.05 0.00 87 1011.5
20260504221510 47 319 3.0 6.0 0.00 0.05 0.00 87 1011.6
20260504220513 47 283 2.0 6.0 0.00 0.05 0.00 87 1011.6
20260504215514 47 313 3.0 7.0 0.00 0.05 0.05 87 1011.6
20260504211514 48 309 3.0 7.0 0.00 0.12 0.05 88 1011.6
20260504210514 48 319 3.0 6.0 0.00 0.12 0.05 89 1011.6
20260504205513 47 324 2.0 5.0 0.00 0.13 0.05 89 1011.6
20260504204513 47 328 2.0 3.0 0.00 0.13 0.05 89 1011.5
20260504203513 47 328 0.0 2.0 0.00 0.14 0.05 88 1011.5
20260504195512 49 333 1.0 5.0 0.00 0.20 0.05 86 1011.2
20260504194512 49 315 1.0 3.0 0.00 0.20 0.05 85 1011.2
20260504191512 51 298 0.0 2.0 0.00 0.20 0.05 81 1011.1
20260504190512 52 305 1.0 2.0 0.00 0.20 0.05 79 1011.1
20260504184513 53 281 2.0 5.0 0.00 0.20 0.05 77 1011.0
20260504182512 54 304 4.0 8.0 0.00 0.20 0.05 73 1010.9
20260504180512 55 0 5.0 10.0 0.00 0.20 0.05 67 1010.7
20260504173512 57 259 8.0 13.0 0.00 0.20 0.05 63 1010.7
20260504172512 58 246 6.0 12.0 0.00 0.20 0.05 63 1010.7
20260504171512 58 267 7.0 16.0 0.00 0.20 0.05 59 1010.7
20260504170512 58 272 8.0 16.0 0.00 0.20 0.05 60 1010.7